sat.trackr.live / text

‹ back to catalog

STARLINK-30821

NORAD 58181 · 2023-167G

PAYLOAD ACTIVE UNKNOWN

§ Identity

Operator
Country
US
Launch date
2023-10-30
Launch site
AFETR
Launch vehicle
Mass (kg)
RCS (m²)

Purposes: comms

External: N2YO · Heavens-Above · Gunter

§ Orbital elements

Epoch: 2026-05-25T04:07:42.584160Z

Period
94.27 min
Inclination
43.0033°
Eccentricity
0.0000811
Mean motion
15.27578249 rev/d
Perigee alt
482.5 km
Apogee alt
483.6 km
Semi-major
6,861.2 km
B*
6.5603e-5
RAAN
71.3310°
Arg perigee
251.2551°
Mean anomaly
108.8212°
Rev number
14,267

§ Raw data

STARLINK-308211 58181U 23167G   26145.17202065  .00001544  00000+0  65603-4 0  99902 58181  43.0033  71.3310 0000811 251.2551 108.8212 15.27578249142676

JSON: /api/v1/satellites/58181 · /tle

For live sub-satellite position, see the globe view (requires WebGL).

§ Visibility from observer

Set your observer location to see the next 7 days of passes ≥ 10°. The values pass through the URL so the page stays shareable.

No JS? Fill the form by hand. The geolocation button needs JavaScript.